Weather History for Tampa Macdill AFB, FL

Change the Weather History Date:

Wednesday, December 5, 2012

  Actual Average Record
Temperature  
Mean Temperature 68 °F -  
Max Temperature 81 °F 73 °F 84 °F (1998)
Min Temperature 55 °F 55 °F 44 °F (2007)
Cooling Degree Days 3    
Growing Degree Days 18 (Base 50)    
Moisture  
Dew Point 60 °F    
Average Humidity 78    
Maximum Humidity 99    
Minimum Humidity 42    
Precipitation  
Precipitation 0.00 in - - ()
Sea Level Pressure  
Sea Level Pressure 30.12 in    
Wind  
Wind Speed 6 mph (NE)    
Max Wind Speed 10 mph    
Max Gust Speed -    
Visibility 10 miles    
Events      
Averages and records for this station are not official NWS values.
T = Trace of Precipitation, MM = Missing Value Source: NWS Daily Summary

Daily Weather History Graph

Daily Weather History Graph

Search for Another Location

Airport:

Trip Planner

Search our weather history database for the weather conditions in past years. The results will help you decide how hot, cold, wet, or windy it might be!

Date:

Astronomy

Dec. 05, 2012 Rise Set
Actual Time 7:07 AM EST 5:34 PM EST
Civil Twilight 6:41 AM EST 6:00 PM EST
Nautical Twilight 6:12 AM EST 6:29 PM EST
Astronomical Twilight 5:44 AM EST 6:57 PM EST
Moon 11:57 PM EST (12/5) 11:53 AM EST (12/5)
Length of Visible Light 11h 18m
Length of Day
10h 27m
Waning Gibbous, 60% of the Moon is Illuminated
Dec 5
Waning Gibbous
Dec 6
Last Quarter
Dec 13
New
Dec 20
First Quarter
Dec 28
Full

Hourly Weather History & Observations

Time (EST) Temp. Heat Index Dew Point Humidity Pressure Visibility Wind Dir Wind Speed Gust Speed Precip Events Conditions
12:55 AM 58.5 °F - 55.8 °F 91% 30.19 in 10.0 mi East 9.2 mph - N/A   Clear
1:55 AM 58.6 °F - 56.3 °F 92% 30.18 in 10.0 mi East 6.9 mph - N/A   Scattered Clouds
2:55 AM 61.3 °F - 59.4 °F 93% 30.17 in 10.0 mi Calm Calm - N/A   Overcast
3:55 AM 60.1 °F - 56.7 °F 88% 30.16 in 10.0 mi ENE 6.9 mph - N/A   Partly Cloudy
4:55 AM 56.8 °F - 55.2 °F 94% 30.15 in 10.0 mi ENE 6.9 mph - N/A   Clear
5:55 AM 56.3 °F - 55.2 °F 96% 30.15 in 10.0 mi Calm Calm - N/A   Clear
6:55 AM 55.8 °F - 54.1 °F 94% 30.15 in 10.0 mi ENE 6.9 mph - N/A   Clear
7:55 AM 57.7 °F - 57.4 °F 99% 30.18 in 10.0 mi ENE 4.6 mph - N/A   Clear
9:55 AM 70.7 °F - 63.5 °F 78% 30.19 in 10.0 mi East 8.1 mph - N/A   Clear
10:55 AM 75.0 °F - 65.1 °F 71% 30.18 in 10.0 mi East 6.9 mph - N/A   Clear
11:55 AM 78.6 °F - 64.0 °F 61% 30.15 in 10.0 mi East 5.8 mph - N/A   Clear
12:55 PM 81.5 °F 81.3 °F 56.5 °F 42% 30.12 in 10.0 mi ENE 5.8 mph - N/A   Clear
1:55 PM 81.0 °F 82.3 °F 63.5 °F 55% 30.09 in 10.0 mi West 5.8 mph - N/A   Partly Cloudy
2:55 PM 79.9 °F - 58.5 °F 48% 30.06 in 10.0 mi NW 8.1 mph - N/A   Partly Cloudy
3:55 PM 78.1 °F - 58.3 °F 50% 30.05 in 10.0 mi NW 4.6 mph - N/A   Scattered Clouds
4:55 PM 73.6 °F - 62.6 °F 68% 30.05 in 10.0 mi NNW 3.5 mph - N/A   Partly Cloudy
5:55 PM 70.7 °F - 60.6 °F 70% 30.05 in 10.0 mi North 6.9 mph - N/A   Mostly Cloudy
6:55 PM 68.9 °F - 61.7 °F 78% 30.06 in 10.0 mi North 5.8 mph - N/A   Partly Cloudy
7:55 PM 68.0 °F - 60.3 °F 76% 30.07 in 10.0 mi North 6.9 mph - N/A   Scattered Clouds
8:55 PM 66.9 °F - 60.6 °F 80% 30.06 in 10.0 mi NE 4.6 mph - N/A   Mostly Cloudy
9:55 PM 68.7 °F - 63.0 °F 82% 30.07 in 10.0 mi ENE 10.4 mph - N/A   Mostly Cloudy
10:55 PM 65.8 °F - 62.2 °F 88% 30.07 in 10.0 mi East 6.9 mph - N/A   Scattered Clouds
11:55 PM 65.7 °F - 64.8 °F 97% 30.06 in 10.0 mi East 8.1 mph - N/A   Mostly Cloudy